Location: Unspecified
(40.7945°N, 0.0000°E)
Time: 08:46:07
(UTC+00:00)

Courier 1B - Pass Details

Date: 22 January 2021
Orbit: 962 x 1209 km, 28.3° (Epoch: 03 March)

Event Time Altitude Azimuth Distance (km) Brightness Sun altitude
Rises 00:40:20 0° 233° (SW) 3,669 - -68.0°
Reaches altitude 10° 00:43:33 10° 219° (SW) 2,701 - -67.8°
Maximum altitude 00:48:29 23° 169° (S) 1,909 - -67.4°
Drops below altitude 10° 00:53:24 10° 119° (ESE) 2,690 - -67.1°
Sets 00:56:36 0° 105° (ESE) 3,651 - -66.8°
